[[{"header":{"parameterUnit":"m.s-1","parameterCategory":1,"la1":30.2991,"la2":30.254,"lo1":-89.0895,"lo2":-89.0444,"dy":0.0017,"dx":0.0017,"nx":28,"ny":28,"refTime":"2025-03-15T03:00:00:Z","depth":0,"parameterNumber":2,"parameterNumberName":"U-component_of_WINDS"},"data":[0,0,0,0,0,0,0,0,0,0,0,0,0,0,0,0,0,0,0,0,0,0,0,0,0,0,0,0,0,0,0,0,0,0,0,0,0,0,0,0,0,0,0,0,0,0,0,0,0,0,0,0,0,0,0,0,0,0,-4.4734,-4.4736,0,-4.4871,-4.4873,-4.4874,-4.4919,-4.4918,-4.4918,-4.4917,-4.5056,-4.506,-4.5064,0,0,0,0,0,0,0,0,0,0,0,0,0,-4.4509,-4.4513,-4.4734,-4.4736,-4.4738,-4.4871,-4.4873,-4.4875,-4.4919,-4.4918,-4.4917,-4.4917,-4.5055,-4.506,-4.5065,0,0,0,0,0,0,0,0,0,0,0,0,0,-4.4623,-4.4515,-4.4734,-4.4776,-4.4781,-4.4871,-4.4873,-4.4875,-4.4919,-4.4918,-4.4917,-4.4916,-4.5053,-4.5059,-4.5066,-4.5123,0,0,-4.5085,-4.5088,0,0,0,0,0,0,0,0,-4.4616,-4.4631,-4.4768,-4.4773,-4.4779,-4.4877,-4.4845,-4.4958,-4.4919,-4.4867,-4.4917,-4.4916,-4.4997,-4.5008,-4.5036,-4.513,-4.5136,-4.5086,-4.509,-4.5092,-4.5094,0,0,0,0,0,0,0,-4.4608,-4.4625,-4.4788,-4.477,-4.4777,-4.4787,-4.4802,-4.4866,-4.4935,-4.4871,-4.4875,-4.489,-4.5,-4.5029,-4.5039,-4.5138,-4.5085,-4.5091,-4.5095,-4.5098,-4.5285,-4.5287,0,0,0,0,0,0,-4.4594,-4.4618,-4.4784,-4.4793,-4.4694,-4.4792,-4.4809,-4.4846,-4.4935,-4.4947,-4.4891,-4.4892,-4.5019,-4.5032,-4.5044,-4.5117,-4.5092,-4.5098,-4.5102,-4.5284,-4.5286,-4.5287,0,0,0,0,0,0,-4.4589,-4.4608,-4.4779,-4.4707,-4.4729,-4.4797,-4.4839,-4.485,-4.4879,-4.495,-4.4962,-4.4908,-4.5019,-4.5035,-4.5103,-4.5122,-4.5101,-4.5107,-4.5283,-4.5285,-4.5286,-4.5263,0,0,0,0,0,0,-4.4582,-4.4606,-4.4629,-4.4707,-4.4733,-4.4835,-4.484,-4.4853,-4.489,-4.4893,-4.4969,-4.4981,-4.5019,-4.5093,-4.511,-4.5131,-4.5112,-4.5282,-4.5284,-4.5286,-4.5262,-4.5264,-4.5265,0,0,0,0,0,-4.4574,-4.4617,-4.463,-4.4649,-4.4763,-4.4836,-4.4851,-4.4894,-4.4892,-4.4915,-4.496,-4.4979,-4.5118,-4.51,-4.5119,-4.5142,-4.528,-4.5283,-4.5286,-4.5262,-4.5263,-4.5265,0,0,0,0,0,0,-4.4539,-4.4628,-4.4643,-4.4713,-4.4767,-4.4844,-4.4874,-4.4895,-4.4951,-4.4951,-4.5002,-4.5019,-4.5082,-4.5119,-4.5098,-4.5202,-4.52,-4.5206,-4.5176,-4.5178,-4.5179,-4.5168,-4.5117,0,0,0,0,0,-4.4539,-4.4592,-4.4667,-4.4721,-4.4747,-4.4806,-4.484,-4.4868,-4.4926,-4.4949,-4.5,-4.5055,-4.5111,-4.5147,-4.5202,-4.5268,-4.5285,-4.5294,-4.5295,-4.5296,-4.53,-4.5337,-4.5341,-4.5295,-4.5295,-4.5295,0,0,-4.4541,-4.4596,-4.4626,-4.4715,-4.476,-4.4813,-4.4825,-4.4881,-4.492,-4.4958,-4.5024,-4.5063,-4.5128,-4.5195,-4.5227,-4.5228,-4.5317,-4.5299,-4.5299,-4.5303,-4.534,-4.5344,-4.5348,-4.5297,-4.5297,-4.5297,0,0,-4.457,-4.4617,-4.4667,-4.4712,-4.4781,-4.482,-4.4831,-4.4906,-4.4933,-4.5001,-4.503,-4.5078,-4.5174,-4.5218,-4.5254,-4.53,-4.5319,-4.5317,-4.5323,-4.5358,-4.5361,-4.5365,-4.538,-4.5385,-4.5321,-4.5321,-4.5321,0,-4.4562,-4.4643,-4.469,-4.4744,-4.4782,-4.4819,-4.4869,-4.4911,-4.4994,-4.5019,-4.5019,-4.514,-4.5186,-4.5263,-4.5274,-4.5302,-4.5317,-4.5307,-4.5357,-4.5361,-4.5365,-4.538,-4.5386,-4.532,-4.532,-4.532,-4.5321,0,-4.463,-4.4686,-4.4718,-4.4797,-4.4839,-4.4891,-4.4945,-4.4982,-4.5007,-4.5045,-4.5114,-4.5171,-4.5239,-4.5259,-4.5285,-4.534,-4.5339,-4.5347,-4.5346,-4.5368,-4.5383,-4.5389,-4.5319,-4.5319,-4.532,-4.532,0,0,-4.464,-4.4745,-4.4756,-4.4792,-4.487,-4.4914,-4.4967,-4.5033,-4.5063,-4.512,-4.5165,-4.5245,-4.5254,-4.5294,-4.5325,-4.5356,-4.5387,-4.5361,-4.5363,-4.5362,-4.5451,-4.5443,-4.5449,-4.5401,-4.5402,-4.5403,-4.5445,0,-4.4678,-4.4775,-4.4819,-4.4896,-4.4947,-4.4983,-4.503,-4.5083,-4.512,-4.5169,-4.5211,-4.5267,-4.5274,-4.5299,-4.5331,-4.5376,-4.5405,-4.5374,-4.5442,-4.5444,-4.5423,-4.5457,-4.5449,-4.5485,-4.5451,-4.5452,-4.5453,0,-4.4735,-4.4791,-4.4874,-4.4945,-4.4969,-4.5009,-4.5073,-4.512,-4.5181,-4.5206,-4.5251,-4.528,-4.5337,-4.5333,-4.5411,-4.5389,-4.542,-4.5446,-4.5449,-4.5455,-4.5449,-4.5463,-4.5498,-4.5503,-4.5463,-4.5462,-4.5462,0,-4.4732,-4.4829,-4.489,-4.492,-4.5006,-4.5033,-4.507,-4.513,-4.5167,-4.5223,-4.5247,-4.5309,-4.5343,-4.539,-4.5435,-4.5428,-4.5509,-4.5509,-4.5531,-4.5529,-4.5545,-4.5543,-4.5584,-4.5567,-4.5567,-4.5567,-4.5567,0,-4.4769,-4.4818,-4.489,-4.4927,-4.4983,-4.5032,-4.5085,-4.5125,-4.5178,-4.5223,-4.5259,-4.5301,-4.5359,-4.5408,-4.5444,-4.5503,-4.5518,-4.554,-4.5548,-4.5536,-4.5533,-4.5555,-4.5553,-4.5568,-4.5568,-4.5568,-4.5567,0,-4.4775,-4.4825,-4.4894,-4.497,-4.499,-4.5027,-4.5092,-4.5129,-4.5169,-4.5226,-4.5242,-4.5305,-4.5364,-4.5415,-4.5493,-4.5517,-4.5578,-4.5589,-4.5557,-4.5562,-4.5581,-4.5578,-4.5637,-4.5646,-4.5623,-4.5624,-4.5624,0,-4.4794,-4.4832,-4.4912,-4.4945,-4.4981,-4.5034,-4.5072,-4.5123,-4.5161,-4.5232,-4.5261,-4.5324,-4.5376,-4.547,-4.5522,-4.5582,-4.5594,-4.561,-4.5603,-4.5589,-4.5593,-4.5589,-4.5593,-4.561,-4.561,-4.561,-4.561,0,-4.4823,-4.4846,-4.4899,-4.4961,-4.5006,-4.5057,-4.5109,-4.5134,-4.5194,-4.5235,-4.5296,-4.5337,-4.5417,-4.5478,-4.5544,-4.5582,-4.5606,-4.5612,-4.562,-4.5607,-4.5587,-4.5597,-4.5557,-4.561,-4.561,-4.561,-4.561,-4.561,-4.4835,-4.4871,-4.4932,-4.499,-4.5035,-4.5082,-4.5121,-4.5166,-4.5218,-4.5288,-4.5314,-4.5377,-4.5437,-4.5527,-4.5566,-4.5615,-4.5618,-4.563,-4.5633,-4.5635,-4.5632,-4.558,-4.5628,-4.5628,-4.5628,-4.5628,-4.5628,0,-4.4865,-4.4906,-4.4959,-4.5031,-4.5076,-4.5096,-4.5154,-4.5191,-4.5246,-4.53,-4.535,-4.5421,-4.5481,-4.5538,-4.56,-4.5629,-4.5641,-4.5643,-4.5641,-4.5649,-4.5627,-4.5613,-4.5632,-4.5632,-4.5632,-4.5632,-4.5632,-4.5632,-4.4885,-4.4946,-4.4976,-4.5059,-4.51,-4.5162,-4.5193,-4.5238,-4.5281,-4.5358,-4.5407,-4.5444,-4.5499,-4.5566,-4.5622,-4.5637,-4.5658,-4.5657,-4.5674,-4.5652,-4.5651,-4.565,-4.5637,-4.5661,-4.5661,-4.5693,-4.5693,-4.5693]},{"header":{"parameterUnit":"m.s-1","parameterCategory":1,"la1":30.2991,"la2":30.254,"lo1":-89.0895,"lo2":-89.0444,"dy":0.0017,"dx":0.0017,"nx":28,"ny":28,"refTime":"2025-03-15T03:00:00:Z","depth":0,"parameterNumber":3,"parameterNumberName":"V-component_of_WINDS"},"data":[0,0,0,0,0,0,0,0,0,0,0,0,0,0,0,0,0,0,0,0,0,0,0,0,0,0,0,0,0,0,0,0,0,0,0,0,0,0,0,0,0,0,0,0,0,0,0,0,0,0,0,0,0,0,0,0,0,0,7.1544,7.1547,0,7.1788,7.1791,7.1794,7.1836,7.1834,7.1832,7.183,7.2075,7.2083,7.2091,0,0,0,0,0,0,0,0,0,0,0,0,0,7.1112,7.112,7.1544,7.1547,7.155,7.1788,7.1791,7.1794,7.1836,7.1833,7.1831,7.1829,7.2072,7.2082,7.2092,0,0,0,0,0,0,0,0,0,0,0,0,0,7.1322,7.1123,7.1544,7.16,7.1607,7.1787,7.1791,7.1795,7.1836,7.1833,7.183,7.1827,7.2069,7.2081,7.2093,7.2233,0,0,7.2132,7.2138,0,0,0,0,0,0,0,0,7.131,7.1338,7.1589,7.1596,7.1605,7.1778,7.1729,7.1942,7.1837,7.1749,7.183,7.1826,7.1978,7.1998,7.205,7.2244,7.2255,7.2133,7.2141,7.2146,7.215,0,0,0,0,0,0,0,7.1296,7.1328,7.164,7.1592,7.1602,7.1612,7.1638,7.1769,7.1878,7.1757,7.176,7.1789,7.1982,7.2038,7.2057,7.2258,7.2133,7.2144,7.2152,7.2157,7.2582,7.2585,0,0,0,0,0,0,7.1272,7.1315,7.1633,7.1648,7.1447,7.1622,7.1652,7.1726,7.1877,7.1897,7.1791,7.179,7.2018,7.2042,7.2065,7.2241,7.2146,7.2158,7.2165,7.2578,7.2582,7.2586,0,0,0,0,0,0,7.1262,7.1299,7.1623,7.1483,7.1525,7.1633,7.1716,7.1732,7.1788,7.1903,7.1922,7.1829,7.2017,7.2047,7.2192,7.225,7.2164,7.2175,7.2574,7.2579,7.2584,7.2592,0,0,0,0,0,0,7.125,7.1296,7.135,7.1484,7.1532,7.1746,7.1719,7.1739,7.1811,7.1811,7.1943,7.1962,7.2017,7.2173,7.2204,7.2266,7.2185,7.2569,7.2576,7.2583,7.2587,7.2597,7.2605,0,0,0,0,0,7.1234,7.1341,7.1353,7.1391,7.1603,7.1749,7.1777,7.1839,7.1815,7.1871,7.1945,7.1958,7.2238,7.2187,7.2223,7.2289,7.2565,7.2574,7.2582,7.2583,7.2595,7.2605,0,0,0,0,0,0,7.121,7.1359,7.1374,7.1528,7.1626,7.1756,7.1828,7.1849,7.1955,7.1951,7.2022,7.2052,7.2193,7.2255,7.2196,7.2433,7.24,7.2416,7.2388,7.2401,7.241,7.2392,7.2196,0,0,0,0,0,7.1222,7.133,7.1455,7.1578,7.1627,7.1719,7.1785,7.1825,7.1929,7.197,7.2054,7.2153,7.2264,7.2335,7.2443,7.2595,7.2626,7.2659,7.2668,7.2675,7.2688,7.2776,7.2793,7.2614,7.2614,7.2613,0,0,7.1249,7.1345,7.1408,7.1576,7.1656,7.1766,7.1754,7.1869,7.1952,7.1987,7.213,7.2195,7.231,7.246,7.253,7.2516,7.2745,7.2686,7.269,7.27,7.2786,7.2803,7.2818,7.2619,7.2618,7.2617,0,0,7.1355,7.1437,7.1551,7.1633,7.1756,7.1817,7.1844,7.1972,7.2018,7.2162,7.2192,7.229,7.2478,7.256,7.2626,7.2766,7.2783,7.2798,7.2848,7.2932,7.2947,7.296,7.3012,7.3029,7.2811,7.2811,7.2811,0,7.1373,7.1541,7.1606,7.1723,7.1796,7.1835,7.1951,7.2026,7.2177,7.2227,7.2209,7.2449,7.2529,7.27,7.2734,7.2786,7.282,7.2785,7.2939,7.2953,7.2966,7.3017,7.3036,7.2813,7.2812,7.2812,7.2812,0,7.1558,7.1674,7.1751,7.1899,7.1981,7.2096,7.2178,7.2253,7.2285,7.2348,7.2496,7.2593,7.2723,7.2766,7.2798,7.2942,7.2931,7.2925,7.2893,7.2984,7.3032,7.3052,7.2814,7.2814,7.2814,7.2813,0,0,7.1656,7.184,7.1867,7.1936,7.2076,7.2166,7.2283,7.2412,7.2476,7.2579,7.268,7.2839,7.2837,7.2912,7.2953,7.3027,7.3134,7.3013,7.3017,7.3034,7.3302,7.3307,7.3328,7.3145,7.3149,7.3152,7.3293,0,7.178,7.1993,7.2056,7.2234,7.2343,7.2382,7.2484,7.258,7.2642,7.2743,7.281,7.2924,7.291,7.2956,7.3031,7.3105,7.3189,7.3096,7.3241,7.3245,7.3213,7.3353,7.3358,7.3487,7.3312,7.3316,7.3318,0,7.1954,7.2064,7.2254,7.2382,7.243,7.2521,7.2645,7.2741,7.2851,7.2891,7.2976,7.3012,7.3135,7.3095,7.3267,7.3202,7.3265,7.331,7.3317,7.3335,7.3288,7.3377,7.3529,7.3549,7.3348,7.3346,7.3344,0,7.201,7.2204,7.2344,7.2401,7.2553,7.2617,7.2682,7.279,7.2864,7.2972,7.3021,7.3141,7.3207,7.3299,7.3366,7.3331,7.3534,7.3498,7.3571,7.3569,7.3613,7.361,7.378,7.365,7.3649,7.3649,7.3648,0,7.2144,7.226,7.2372,7.2458,7.2588,7.2659,7.2785,7.2853,7.2948,7.3048,7.3087,7.318,7.3262,7.3365,7.3418,7.3554,7.3582,7.3618,7.3631,7.3617,7.3612,7.366,7.3654,7.3654,7.3653,7.3652,7.3651,0,7.2229,7.2309,7.2464,7.2596,7.2632,7.2723,7.2835,7.292,7.2984,7.311,7.3143,7.3242,7.3366,7.3442,7.3598,7.3634,7.3784,7.3792,7.3748,7.3755,7.3824,7.3817,7.4032,7.4065,7.391,7.3911,7.3912,0,7.2311,7.2401,7.2544,7.2615,7.2682,7.2795,7.2872,7.2944,7.3022,7.3156,7.3225,7.3352,7.3458,7.3654,7.3739,7.3859,7.3872,7.3939,7.3891,7.3874,7.3877,7.3872,7.3882,7.3948,7.3949,7.395,7.3951,0,7.2449,7.2484,7.2594,7.2719,7.2811,7.2912,7.3012,7.3067,7.3157,7.3243,7.3372,7.3454,7.3615,7.3741,7.3869,7.3935,7.3959,7.3966,7.399,7.3976,7.3948,7.3967,7.3773,7.3961,7.396,7.3959,7.3959,7.3958,7.2537,7.262,7.2734,7.2856,7.294,7.3034,7.3121,7.3197,7.3306,7.3444,7.3479,7.3615,7.3724,7.3899,7.3968,7.4075,7.4065,7.4098,7.4107,7.4115,7.4118,7.3929,7.4098,7.4098,7.4097,7.4097,7.4097,0,7.2679,7.2755,7.2866,7.3008,7.3104,7.3119,7.3231,7.3311,7.343,7.353,7.3634,7.3783,7.3905,7.4001,7.4127,7.4194,7.4208,7.4225,7.4222,7.4238,7.4118,7.4087,7.4212,7.4212,7.4212,7.4212,7.4212,7.4211,7.2765,7.2907,7.2956,7.3141,7.3215,7.335,7.3413,7.35,7.3581,7.3746,7.3849,7.3911,7.401,7.4144,7.4257,7.4282,7.4328,7.4343,7.437,7.4258,7.4245,7.4234,7.4205,7.4352,7.4352,7.4481,7.4482,7.4483]}]]